Time,TemperatureF,DewpointF,PressureIn,WindDirection,WindDirectionDegrees,WindSpeedMPH,WindSpeedGustMPH,Humidity,HourlyPrecipIn,Conditions,Clouds,dailyrainin,SoftwareType,DateUTC
2013-07-02 00:01:00,65.0,57.0,30.11,SE,131,0.0,0.0,76,0.00,,,0.00,,2013-07-02 05:01:00,
2013-07-02 00:11:00,64.0,57.0,30.11,SE,131,0.0,0.0,77,0.00,,,0.00,,2013-07-02 05:11:00,
2013-07-02 00:22:00,64.0,57.0,30.12,East,96,0.0,3.0,79,0.00,,,0.00,,2013-07-02 05:22:00,
2013-07-02 00:32:00,63.0,56.0,30.12,ESE,119,0.0,2.0,78,0.00,,,0.00,,2013-07-02 05:32:00,
2013-07-02 00:43:00,63.0,56.0,30.12,East,101,0.0,1.0,79,0.00,,,0.00,,2013-07-02 05:43:00,
2013-07-02 00:53:00,63.0,56.0,30.12,East,101,0.0,0.0,79,0.00,,,0.00,,2013-07-02 05:53:00,
2013-07-02 01:01:00,62.0,55.0,30.12,East,101,0.0,1.0,79,0.00,,,0.00,,2013-07-02 06:01:00,
2013-07-02 01:11:00,62.0,55.0,30.12,East,101,0.0,0.0,79,0.00,,,0.00,,2013-07-02 06:11:00,
2013-07-02 01:23:00,62.0,56.0,30.12,East,101,0.0,0.0,80,0.00,,,0.00,,2013-07-02 06:23:00,
2013-07-02 01:34:00,61.0,55.0,30.12,East,101,0.0,0.0,80,0.00,,,0.00,,2013-07-02 06:34:00,
2013-07-02 01:43:00,61.0,55.0,30.12,East,101,0.0,0.0,81,0.00,,,0.00,,2013-07-02 06:43:00,
2013-07-02 01:53:00,61.0,55.0,30.12,East,101,0.0,0.0,81,0.00,,,0.00,,2013-07-02 06:53:00,
2013-07-02 02:01:00,60.0,54.0,30.12,East,101,0.0,0.0,81,0.00,,,0.00,,2013-07-02 07:01:00,
2013-07-02 02:12:00,60.0,54.0,30.12,East,101,0.0,0.0,81,0.00,,,0.00,,2013-07-02 07:12:00,
2013-07-02 02:22:00,60.0,54.0,30.12,East,101,0.0,0.0,81,0.00,,,0.00,,2013-07-02 07:22:00,
2013-07-02 02:34:00,60.0,54.0,30.12,East,101,0.0,1.0,82,0.00,,,0.00,,2013-07-02 07:34:00,
2013-07-02 02:44:00,60.0,54.0,30.11,East,101,0.0,1.0,82,0.00,,,0.00,,2013-07-02 07:44:00,
2013-07-02 02:53:00,59.0,54.0,30.11,East,101,0.0,1.0,82,0.00,,,0.00,,2013-07-02 07:53:00,
2013-07-02 03:02:00,59.0,53.0,30.11,East,100,0.0,2.0,81,0.00,,,0.00,,2013-07-02 08:02:00,
2013-07-02 03:22:00,59.0,53.0,30.11,SE,142,0.0,1.0,81,0.00,,,0.00,,2013-07-02 08:22:00,
2013-07-02 03:33:00,59.0,53.0,30.11,WSW,256,0.0,1.0,81,0.00,,,0.00,,2013-07-02 08:33:00,
2013-07-02 03:44:00,59.0,53.0,30.11,SE,126,0.0,1.0,81,0.00,,,0.00,,2013-07-02 08:44:00,
2013-07-02 03:53:00,58.0,52.0,30.11,SE,126,0.0,0.0,81,0.00,,,0.00,,2013-07-02 08:53:00,
2013-07-02 04:02:00,58.0,53.0,30.11,SE,126,0.0,1.0,82,0.00,,,0.00,,2013-07-02 09:02:00,
2013-07-02 04:11:00,58.0,53.0,30.11,NNE,27,0.0,3.0,83,0.00,,,0.00,,2013-07-02 09:11:00,
2013-07-02 04:23:00,58.0,53.0,30.11,NNE,32,0.0,3.0,83,0.00,,,0.00,,2013-07-02 09:23:00,
2013-07-02 04:33:00,57.0,52.0,30.11,NE,51,1.0,2.0,83,0.00,,,0.00,,2013-07-02 09:33:00,
2013-07-02 04:43:00,57.0,52.0,30.11,ENE,59,1.0,3.0,83,0.00,,,0.00,,2013-07-02 09:43:00,
2013-07-02 04:52:00,57.0,52.0,30.11,NE,51,1.0,5.0,83,0.00,,,0.00,,2013-07-02 09:52:00,
2013-07-02 05:01:00,57.0,52.0,30.11,ENE,69,0.0,5.0,83,0.00,,,0.00,,2013-07-02 10:01:00,
2013-07-02 05:22:00,57.0,52.0,30.12,ENE,59,1.0,4.0,83,0.00,,,0.00,,2013-07-02 10:22:00,
2013-07-02 05:33:00,57.0,52.0,30.12,NE,51,1.0,3.0,82,0.00,,,0.00,,2013-07-02 10:33:00,
2013-07-02 05:44:00,56.0,51.0,30.12,ENE,60,1.0,3.0,82,0.00,,,0.00,,2013-07-02 10:44:00,
2013-07-02 05:52:00,56.0,51.0,30.12,NE,44,1.0,3.0,82,0.00,,,0.00,,2013-07-02 10:52:00,
2013-07-02 06:01:00,56.0,51.0,30.12,NE,41,1.0,4.0,82,0.00,,,0.00,,2013-07-02 11:01:00,
2013-07-02 06:11:00,56.0,50.0,30.12,ENE,61,1.0,4.0,81,0.00,,,0.00,,2013-07-02 11:11:00,
2013-07-02 06:22:00,56.0,50.0,30.12,NE,36,0.0,4.0,81,0.00,,,0.00,,2013-07-02 11:22:00,
2013-07-02 06:33:00,57.0,51.0,30.12,NE,40,1.0,5.0,80,0.00,,,0.00,,2013-07-02 11:33:00,
2013-07-02 06:52:00,57.0,51.0,30.13,NE,51,1.0,4.0,79,0.00,,,0.00,,2013-07-02 11:52:00,
2013-07-02 07:11:00,57.0,51.0,30.13,East,82,2.0,5.0,79,0.00,,,0.00,,2013-07-02 12:11:00,
2013-07-02 07:23:00,57.0,51.0,30.13,ENE,58,1.0,4.0,79,0.00,,,0.00,,2013-07-02 12:23:00,
2013-07-02 07:33:00,57.0,50.0,30.13,ENE,57,1.0,5.0,78,0.00,,,0.00,,2013-07-02 12:33:00,
2013-07-02 07:43:00,58.0,51.0,30.13,ENE,65,1.0,2.0,77,0.00,,,0.00,,2013-07-02 12:43:00,
2013-07-02 07:52:00,58.0,51.0,30.13,ENE,69,2.0,4.0,77,0.00,,,0.00,,2013-07-02 12:52:00,
2013-07-02 08:01:00,59.0,51.0,30.14,NNE,32,1.0,3.0,76,0.00,,,0.00,,2013-07-02 13:01:00,
2013-07-02 08:11:00,59.0,51.0,30.13,NE,53,1.0,5.0,76,0.00,,,0.00,,2013-07-02 13:11:00,
2013-07-02 08:22:00,60.0,52.0,30.13,ESE,108,0.0,3.0,76,0.00,,,0.00,,2013-07-02 13:22:00,
2013-07-02 08:34:00,61.0,53.0,30.14,NE,53,0.0,7.0,75,0.00,,,0.00,,2013-07-02 13:34:00,
2013-07-02 08:52:00,63.0,53.0,30.14,NE,55,1.0,2.0,71,0.00,,,0.00,,2013-07-02 13:52:00,
2013-07-02 09:02:00,64.0,54.0,30.13,SE,146,1.0,3.0,69,0.00,,,0.00,,2013-07-02 14:02:00,
2013-07-02 09:11:00,64.0,54.0,30.13,SE,142,1.0,3.0,70,0.00,,,0.00,,2013-07-02 14:11:00,
2013-07-02 09:22:00,65.0,55.0,30.13,NE,51,0.0,3.0,71,0.00,,,0.00,,2013-07-02 14:22:00,
2013-07-02 09:33:00,66.0,56.0,30.13,SSE,163,2.0,5.0,69,0.00,,,0.00,,2013-07-02 14:33:00,
2013-07-02 09:43:00,66.0,56.0,30.13,East,86,1.0,4.0,69,0.00,,,0.00,,2013-07-02 14:43:00,
2013-07-02 09:53:00,67.0,54.0,30.13,SE,134,3.0,5.0,64,0.00,,,0.00,,2013-07-02 14:53:00,
2013-07-02 10:02:00,68.0,56.0,30.13,ENE,57,0.0,4.0,66,0.00,,,0.00,,2013-07-02 15:02:00,
2013-07-02 10:22:00,69.0,55.0,30.13,SE,139,2.0,6.0,61,0.00,,,0.00,,2013-07-02 15:22:00,
2013-07-02 10:33:00,70.0,57.0,30.13,SSE,153,0.0,3.0,64,0.00,,,0.00,,2013-07-02 15:33:00,
2013-07-02 10:44:00,70.0,57.0,30.13,NE,49,1.0,5.0,63,0.00,,,0.00,,2013-07-02 15:44:00,
2013-07-02 10:53:00,70.0,56.0,30.13,ESE,123,1.0,5.0,62,0.00,,,0.00,,2013-07-02 15:53:00,
2013-07-02 11:01:00,70.0,56.0,30.13,SE,126,1.0,6.0,61,0.00,,,0.00,,2013-07-02 16:01:00,
2013-07-02 11:12:00,72.0,57.0,30.12,SSE,154,1.0,6.0,59,0.00,,,0.00,,2013-07-02 16:12:00,
2013-07-02 11:22:00,72.0,56.0,30.12,SE,144,0.0,4.0,57,0.00,,,0.00,,2013-07-02 16:22:00,
2013-07-02 11:33:00,73.0,56.0,30.12,SE,129,3.0,7.0,56,0.00,,,0.00,,2013-07-02 16:33:00,
2013-07-02 11:43:00,73.0,55.0,30.12,SE,125,2.0,5.0,53,0.00,,,0.00,,2013-07-02 16:43:00,
2013-07-02 11:52:00,73.0,54.0,30.12,SE,130,2.0,6.0,52,0.00,,,0.00,,2013-07-02 16:52:00,
2013-07-02 12:02:00,72.0,55.0,30.12,SSE,155,2.0,6.0,56,0.00,,,0.00,,2013-07-02 17:02:00,
2013-07-02 12:11:00,73.0,56.0,30.12,SE,130,2.0,7.0,56,0.00,,,0.00,,2013-07-02 17:11:00,
2013-07-02 12:33:00,74.0,54.0,30.11,SE,135,2.0,5.0,50,0.00,,,0.00,,2013-07-02 17:33:00,
2013-07-02 12:43:00,74.0,55.0,30.11,ENE,57,1.0,5.0,51,0.00,,,0.00,,2013-07-02 17:43:00,
2013-07-02 12:53:00,74.0,56.0,30.11,SE,136,1.0,5.0,54,0.00,,,0.00,,2013-07-02 17:53:00,
2013-07-02 13:02:00,74.0,55.0,30.11,East,88,1.0,5.0,52,0.00,,,0.00,,2013-07-02 18:02:00,
2013-07-02 13:12:00,75.0,56.0,30.11,SE,124,0.0,5.0,52,0.00,,,0.00,,2013-07-02 18:12:00,
2013-07-02 13:23:00,75.0,54.0,30.11,NE,55,2.0,6.0,48,0.00,,,0.00,,2013-07-02 18:23:00,
2013-07-02 13:34:00,76.0,57.0,30.10,SE,138,2.0,7.0,51,0.00,,,0.00,,2013-07-02 18:34:00,
2013-07-02 13:43:00,75.0,54.0,30.10,NE,56,3.0,7.0,48,0.00,,,0.00,,2013-07-02 18:43:00,
2013-07-02 13:53:00,75.0,54.0,30.10,NE,56,1.0,5.0,48,0.00,,,0.00,,2013-07-02 18:53:00,
2013-07-02 14:01:00,75.0,55.0,30.10,NNE,15,1.0,7.0,50,0.00,,,0.00,,2013-07-02 19:01:00,
2013-07-02 14:12:00,74.0,55.0,30.09,ENE,57,2.0,8.0,51,0.00,,,0.00,,2013-07-02 19:12:00,
2013-07-02 14:22:00,75.0,56.0,30.09,NE,41,1.0,5.0,51,0.00,,,0.00,,2013-07-02 19:22:00,
2013-07-02 14:34:00,76.0,57.0,30.09,ENE,61,2.0,5.0,51,0.00,,,0.00,,2013-07-02 19:34:00,
2013-07-02 14:43:00,75.0,53.0,30.09,ESE,105,3.0,8.0,46,0.00,,,0.00,,2013-07-02 19:43:00,
2013-07-02 14:53:00,75.0,55.0,30.09,ESE,110,2.0,9.0,50,0.00,,,0.00,,2013-07-02 19:53:00,
2013-07-02 15:02:00,75.0,53.0,30.08,NNE,22,3.0,7.0,46,0.00,,,0.00,,2013-07-02 20:02:00,
2013-07-02 15:11:00,75.0,52.0,30.09,North,9,2.0,7.0,45,0.00,,,0.00,,2013-07-02 20:11:00,
2013-07-02 15:22:00,75.0,54.0,30.08,NNE,31,1.0,5.0,48,0.00,,,0.00,,2013-07-02 20:22:00,
2013-07-02 15:33:00,75.0,56.0,30.08,SE,133,1.0,9.0,52,0.00,,,0.00,,2013-07-02 20:33:00,
2013-07-02 15:43:00,76.0,54.0,30.08,East,82,3.0,5.0,46,0.00,,,0.00,,2013-07-02 20:43:00,
2013-07-02 15:52:00,77.0,55.0,30.08,NE,40,1.0,5.0,47,0.00,,,0.00,,2013-07-02 20:52:00,
2013-07-02 16:02:00,76.0,53.0,30.07,ENE,65,3.0,8.0,45,0.00,,,0.00,,2013-07-02 21:02:00,
2013-07-02 16:11:00,76.0,54.0,30.07,NE,53,1.0,6.0,47,0.00,,,0.00,,2013-07-02 21:11:00,
2013-07-02 16:22:00,76.0,54.0,30.07,NE,40,3.0,8.0,46,0.00,,,0.00,,2013-07-02 21:22:00,
2013-07-02 16:33:00,76.0,55.0,30.07,ENE,74,1.0,5.0,48,0.00,,,0.00,,2013-07-02 21:33:00,
2013-07-02 16:44:00,75.0,52.0,30.07,NE,49,3.0,10.0,45,0.00,,,0.00,,2013-07-02 21:44:00,
2013-07-02 16:52:00,76.0,53.0,30.07,NE,50,2.0,6.0,45,0.00,,,0.00,,2013-07-02 21:52:00,
2013-07-02 17:01:00,76.0,52.0,30.06,ENE,65,1.0,9.0,43,0.00,,,0.00,,2013-07-02 22:01:00,
2013-07-02 17:11:00,77.0,54.0,30.06,ENE,61,1.0,5.0,45,0.00,,,0.00,,2013-07-02 22:11:00,
2013-07-02 17:22:00,77.0,54.0,30.06,ENE,77,1.0,4.0,45,0.00,,,0.00,,2013-07-02 22:22:00,
2013-07-02 17:34:00,77.0,52.0,30.06,ENE,60,2.0,5.0,42,0.00,,,0.00,,2013-07-02 22:34:00,
2013-07-02 17:43:00,77.0,52.0,30.06,ENE,61,3.0,6.0,42,0.00,,,0.00,,2013-07-02 22:43:00,
2013-07-02 17:53:00,77.0,53.0,30.06,SSE,153,2.0,4.0,43,0.00,,,0.00,,2013-07-02 22:53:00,
2013-07-02 18:01:00,77.0,53.0,30.06,SE,141,1.0,3.0,44,0.00,,,0.00,,2013-07-02 23:01:00,
2013-07-02 18:11:00,77.0,53.0,30.06,ESE,117,0.0,3.0,43,0.00,,,0.00,,2013-07-02 23:11:00,
2013-07-02 18:22:00,76.0,54.0,30.06,NE,39,1.0,5.0,47,0.00,,,0.00,,2013-07-02 23:22:00,
2013-07-02 18:33:00,76.0,54.0,30.06,South,180,1.0,4.0,46,0.00,,,0.00,,2013-07-02 23:33:00,
2013-07-02 18:44:00,75.0,53.0,30.06,SE,136,0.0,4.0,46,0.00,,,0.00,,2013-07-02 23:44:00,
2013-07-02 18:52:00,75.0,54.0,30.05,SE,140,0.0,2.0,48,0.00,,,0.00,,2013-07-02 23:52:00,
2013-07-02 19:01:00,75.0,54.0,30.05,SSE,148,1.0,3.0,48,0.00,,,0.00,,2013-07-03 00:01:00,
2013-07-02 19:11:00,75.0,53.0,30.05,SE,131,0.0,4.0,47,0.00,,,0.00,,2013-07-03 00:11:00,
2013-07-02 19:22:00,75.0,53.0,30.05,ENE,77,0.0,4.0,46,0.00,,,0.00,,2013-07-03 00:22:00,
2013-07-02 19:33:00,76.0,54.0,30.06,East,94,0.0,3.0,46,0.00,,,0.00,,2013-07-03 00:33:00,
2013-07-02 19:44:00,75.0,53.0,30.05,SSE,147,1.0,3.0,47,0.00,,,0.00,,2013-07-03 00:44:00,
2013-07-02 19:52:00,75.0,53.0,30.05,SE,146,0.0,2.0,47,0.00,,,0.00,,2013-07-03 00:52:00,
2013-07-02 20:01:00,75.0,53.0,30.06,SE,146,0.0,1.0,47,0.00,,,0.00,,2013-07-03 01:01:00,
2013-07-02 20:11:00,74.0,54.0,30.05,SE,146,0.0,1.0,50,0.00,,,0.00,,2013-07-03 01:11:00,
2013-07-02 20:22:00,74.0,55.0,30.05,SE,146,0.0,1.0,51,0.00,,,0.00,,2013-07-03 01:22:00,
2013-07-02 20:33:00,73.0,54.0,30.05,SSE,150,2.0,4.0,52,0.00,,,0.00,,2013-07-03 01:33:00,
2013-07-02 20:42:00,72.0,53.0,30.05,SE,132,1.0,4.0,51,0.00,,,0.00,,2013-07-03 01:42:00,
2013-07-02 20:55:00,71.0,52.0,30.05,SE,134,1.0,4.0,51,0.00,,,0.00,,2013-07-03 01:55:00,
2013-07-02 21:04:00,71.0,54.0,30.05,SE,132,0.0,3.0,54,0.00,,,0.00,,2013-07-03 02:04:00,
2013-07-02 21:14:00,70.0,53.0,30.05,SE,132,0.0,3.0,55,0.00,,,0.00,,2013-07-03 02:14:00,
2013-07-02 21:27:00,68.0,53.0,30.05,SE,134,1.0,4.0,58,0.00,,,0.00,,2013-07-03 02:27:00,
2013-07-02 21:44:00,66.0,51.0,30.06,ESE,119,1.0,4.0,58,0.00,,,0.00,,2013-07-03 02:44:00,
2013-07-02 21:55:00,66.0,51.0,30.06,SSE,153,0.0,3.0,58,0.00,,,0.00,,2013-07-03 02:55:00,
2013-07-02 22:04:00,65.0,50.0,30.07,SE,144,1.0,3.0,59,0.00,,,0.00,,2013-07-03 03:04:00,
2013-07-02 22:13:00,64.0,51.0,30.07,SSE,161,0.0,1.0,62,0.00,,,0.00,,2013-07-03 03:13:00,
2013-07-02 22:25:00,64.0,51.0,30.07,SSE,159,0.0,1.0,62,0.00,,,0.00,,2013-07-03 03:25:00,
2013-07-02 22:35:00,63.0,51.0,30.07,SSE,159,0.0,0.0,64,0.00,,,0.00,,2013-07-03 03:35:00,
2013-07-02 22:55:00,62.0,51.0,30.08,SSE,159,0.0,0.0,68,0.00,,,0.00,,2013-07-03 03:55:00,
2013-07-02 23:01:00,61.0,51.0,30.07,SSE,159,0.0,0.0,69,0.00,,,0.00,,2013-07-03 04:01:00,
2013-07-02 23:11:00,60.0,50.0,30.07,SSE,159,0.0,0.0,70,0.00,,,0.00,,2013-07-03 04:11:00,
2013-07-02 23:33:00,59.0,50.0,30.08,SSE,159,0.0,0.0,73,0.00,,,0.00,,2013-07-03 04:33:00,
2013-07-02 23:43:00,59.0,50.0,30.07,SSE,159,0.0,0.0,71,0.00,,,0.00,,2013-07-03 04:43:00,
2013-07-02 23:52:00,59.0,50.0,30.08,SSE,159,0.0,0.0,71,0.00,,,0.00,,2013-07-03 04:52:00,